Weather in Norsk

Russia / Amur Oblast     52°20′05″N   129°54′01″E
temp.,
°C
wind,
m/s
gust,
m/s
humid.,
%
clouds,
%
prec.,
mm/h
press.,
hPa
HPBL,
m
14 april, wed
wed1400:00−8n5969100 0.0 1005757
03:00−8n4868100 0.0 1004781
06:00−9n4763100 0.0 1005834
09:00−6n4548100 0.0 10051291
12:00−3n4641100 0.1 10052010
15:00−1nnw4534100 0.1 10052220
18:00−2nw344090 0.0 10051571
21:00−8wnw22776 0.0 100735
15 april, thu
thu1500:00−9w11805 0.0 100818
03:00−9wsw247927 0.0 100865
06:00−9wsw23803 0.0 100962
09:000w354243 0.0 10091182
12:00+3w3533100 0.0 10082356
15:00+5w452678 0.0 10082448
18:00+3nw353129 0.0 1010328
21:00−3nne225897 0.0 101318
16 april, fri
fri1600:00−4ene1159100 0.0 101411
03:00−4ne236398 0.0 101458
06:00−5ne2665100 0.0 1014148
09:00+1ne4644100 0.0 1013484
12:00+4ne4536100 0.2 1012984
15:00+4ene4653100 0.3 10111191
18:00+2ne3786100 0.1 1012581
21:000ne31089100 0.1 1012360
17 april, sat
sat1700:000nne379083 0.1 1012229
03:00−2nne378899 0.1 1012240
06:00−3n278754 0.1 1011187
09:00+3nne246166 0.1 1012560
12:00+10n11435 0.0 10111158
15:00+11nw223326 0.0 10091783
18:00+10wnw23313 0.0 1009514
21:00+4nne22410 0.0 101217
18 april, sun
sun1800:00+1ene11470 0.0 101210
03:00+1ese11550 0.0 101110
06:000sse11761 0.0 101117
09:00+8s23355 0.0 1010501
12:00+12s33246 0.0 10091391
15:00+15ssw23255 0.0 10071759
18:00+14s233054 0.0 1007299
21:00+8s224841 0.0 100920